• In Österreich
  • Länderverzeichnis
  • Für 7 Tage
  • Wassertemperatur
  • Satellitenkarten
  • Wetterkarte
  • News
  • Widgets
  • user-avatar
    Anmelden

    Stündliche Wetter Pieski

    Heute, 19 September, Mittwoch

    Zeit Temperatur Niederschläge Wind Luftdruck Luftfeuchtigkeit
    00:00 +20°C° 0 mm 2 m/S 753 mmHg 68%
    01:00 +19°C° 0 mm 2 m/S 753 mmHg 71%
    02:00 +19°C° 0 mm 2 m/S 753 mmHg 73%
    03:00 +19°C° 0 mm 2 m/S 754 mmHg 74%
    04:00 +18°C° 0 mm 2 m/S 754 mmHg 76%
    05:00 +19°C° 0 mm 2 m/S 754 mmHg 76%
    06:00 +19°C° 0 mm 2 m/S 754 mmHg 76%
    07:00 +19°C° 0 mm 2 m/S 755 mmHg 74%
    08:00 +21°C° 0 mm 2 m/S 755 mmHg 66%
    09:00 +24°C° 0 mm 2 m/S 755 mmHg 59%
    10:00 +26°C° 0 mm 2 m/S 756 mmHg 52%
    11:00 +27°C° 0 mm 2 m/S 756 mmHg 47%
    12:00 +28°C° 0 mm 2 m/S 756 mmHg 43%
    13:00 +29°C° 0 mm 2 m/S 756 mmHg 39%
    14:00 +29°C° 0 mm 2 m/S 755 mmHg 39%
    15:00 +29°C° 0 mm 2 m/S 755 mmHg 40%
    16:00 +29°C° 0 mm 2 m/S 755 mmHg 41%
    17:00 +27°C° 0 mm 2 m/S 755 mmHg 46%
    18:00 +26°C° 0 mm 1 m/S 755 mmHg 52%
    19:00 +24°C° 0 mm 1 m/S 755 mmHg 57%
    20:00 +23°C° 0 mm 1 m/S 755 mmHg 59%
    21:00 +23°C° 0 mm 2 m/S 755 mmHg 61%
    22:00 +21°C° 0 mm 2 m/S 756 mmHg 63%
    23:00 +21°C° 0 mm 2 m/S 756 mmHg 65%

    Morgen, 20 September, Donnerstag

    Zeit Temperatur Niederschläge Wind Luftdruck Luftfeuchtigkeit
    00:00 +21°C° 0 mm 2 m/S 756 mmHg 67%
    01:00 +20°C° 0 mm 2 m/S 756 mmHg 70%
    02:00 +20°C° 0 mm 2 m/S 755 mmHg 71%
    03:00 +19°C° 0 mm 2 m/S 755 mmHg 73%
    04:00 +19°C° 0 mm 2 m/S 755 mmHg 75%
    05:00 +19°C° 0 mm 2 m/S 756 mmHg 75%
    06:00 +19°C° 0 mm 2 m/S 756 mmHg 75%
    07:00 +20°C° 0 mm 2 m/S 756 mmHg 74%
    08:00 +23°C° 0 mm 2 m/S 756 mmHg 67%
    09:00 +24°C° 0 mm 2 m/S 756 mmHg 61%
    10:00 +26°C° 0 mm 2 m/S 756 mmHg 54%
    11:00 +27°C° 0 mm 3 m/S 756 mmHg 50%
    12:00 +28°C° 0 mm 3 m/S 756 mmHg 47%
    13:00 +29°C° 0 mm 3 m/S 756 mmHg 43%
    14:00 +29°C° 0 mm 3 m/S 755 mmHg 43%
    15:00 +29°C° 0 mm 3 m/S 755 mmHg 42%
    16:00 +29°C° 0 mm 3 m/S 755 mmHg 42%
    17:00 +27°C° 0 mm 2 m/S 755 mmHg 48%
    18:00 +26°C° 0 mm 2 m/S 754 mmHg 53%
    19:00 +24°C° 0 mm 1 m/S 754 mmHg 59%
    20:00 +23°C° 0 mm 1 m/S 754 mmHg 60%
    21:00 +23°C° 0 mm 2 m/S 754 mmHg 62%
    22:00 +23°C° 0 mm 2 m/S 754 mmHg 64%
    23:00 +21°C° 0 mm 2 m/S 753 mmHg 65%

    übermorgen, 21 September, Freitag

    Zeit Temperatur Niederschläge Wind Luftdruck Luftfeuchtigkeit
    00:00 +21°C° 0 mm 3 m/S 753 mmHg 65%
    01:00 +21°C° 0 mm 3 m/S 753 mmHg 66%
    02:00 +20°C° 0 mm 3 m/S 752 mmHg 66%
    03:00 +20°C° 0 mm 3 m/S 752 mmHg 67%
    04:00 +20°C° 0 mm 3 m/S 752 mmHg 67%
    05:00 +20°C° 0 mm 3 m/S 751 mmHg 66%
    06:00 +20°C° 0 mm 4 m/S 751 mmHg 66%
    07:00 +20°C° 0 mm 4 m/S 751 mmHg 66%
    08:00 +22°C° 0 mm 4 m/S 751 mmHg 59%
    09:00 +25°C° 0 mm 5 m/S 750 mmHg 52%
    10:00 +28°C° 0 mm 6 m/S 750 mmHg 46%
    11:00 +29°C° 0 mm 6 m/S 749 mmHg 42%
    12:00 +30°C° 0 mm 6 m/S 749 mmHg 38%
    13:00 +32°C° 0 mm 7 m/S 748 mmHg 33%
    14:00 +30°C° 0 mm 6 m/S 748 mmHg 36%
    15:00 +30°C° 0 mm 6 m/S 747 mmHg 38%
    16:00 +29°C° 0 mm 5 m/S 747 mmHg 40%
    17:00 +26°C° 0.4 mm 5 m/S 748 mmHg 52%
    18:00 +22°C° 0.4 mm 5 m/S 749 mmHg 65%
    19:00 +19°C° 0.4 mm 6 m/S 749 mmHg 77%
    20:00 +17°C° 0.3 mm 5 m/S 750 mmHg 74%
    21:00 +17°C° 0.3 mm 4 m/S 751 mmHg 71%
    22:00 +15°C° 0.3 mm 4 m/S 752 mmHg 67%
    23:00 +14°C° 0 mm 4 m/S 752 mmHg 65%

    22 September, Samstag

    Zeit Temperatur Niederschläge Wind Luftdruck Luftfeuchtigkeit
    00:00 +14°C° 0 mm 4 m/S 753 mmHg 63%
    01:00 +14°C° 0 mm 4 m/S 753 mmHg 61%
    02:00 +13°C° 0 mm 4 m/S 753 mmHg 61%
    03:00 +13°C° 0 mm 4 m/S 753 mmHg 60%
    04:00 +13°C° 0 mm 4 m/S 754 mmHg 60%
    05:00 +13°C° 0 mm 4 m/S 754 mmHg 60%
    06:00 +13°C° 0 mm 4 m/S 754 mmHg 60%
    07:00 +13°C° 0 mm 4 m/S 754 mmHg 60%
    08:00 +14°C° 0 mm 5 m/S 754 mmHg 56%
    09:00 +15°C° 0 mm 5 m/S 755 mmHg 51%
    10:00 +16°C° 0 mm 6 m/S 755 mmHg 47%
    11:00 +16°C° 0 mm 6 m/S 754 mmHg 45%
    12:00 +17°C° 0 mm 6 m/S 754 mmHg 42%
    13:00 +17°C° 0 mm 7 m/S 754 mmHg 39%
    14:00 +17°C° 0 mm 6 m/S 754 mmHg 40%
    15:00 +17°C° 0 mm 6 m/S 754 mmHg 40%
    16:00 +17°C° 0 mm 5 m/S 754 mmHg 40%
    17:00 +16°C° 0 mm 5 m/S 754 mmHg 44%
    18:00 +15°C° 0 mm 4 m/S 755 mmHg 48%
    19:00 +14°C° 0 mm 3 m/S 755 mmHg 52%
    20:00 +13°C° 0 mm 3 m/S 755 mmHg 56%
    21:00 +12°C° 0 mm 3 m/S 755 mmHg 59%
    22:00 +11°C° 0 mm 3 m/S 756 mmHg 63%
    23:00 +11°C° 0 mm 3 m/S 756 mmHg 64%

    23 September, Sonntag

    Zeit Temperatur Niederschläge Wind Luftdruck Luftfeuchtigkeit
    00:00 +10°C° 0 mm 3 m/S 756 mmHg 65%
    01:00 +10°C° 0 mm 3 m/S 756 mmHg 66%
    02:00 +10°C° 0 mm 3 m/S 756 mmHg 68%
    03:00 +9°C° 0 mm 3 m/S 756 mmHg 71%
    04:00 +9°C° 0 mm 3 m/S 756 mmHg 73%
    05:00 +9°C° 0 mm 3 m/S 756 mmHg 73%
    06:00 +9°C° 0 mm 3 m/S 756 mmHg 73%
    07:00 +9°C° 0 mm 3 m/S 756 mmHg 73%
    08:00 +11°C° 0 mm 3 m/S 755 mmHg 65%
    09:00 +12°C° 0 mm 3 m/S 755 mmHg 56%
    10:00 +14°C° 0 mm 3 m/S 755 mmHg 48%
    11:00 +16°C° 0 mm 3 m/S 754 mmHg 44%
    12:00 +17°C° 0 mm 3 m/S 753 mmHg 41%
    13:00 +18°C° 0 mm 4 m/S 751 mmHg 37%
    14:00 +18°C° 0 mm 4 m/S 750 mmHg 39%
    15:00 +17°C° 0 mm 4 m/S 749 mmHg 40%
    16:00 +17°C° 0 mm 4 m/S 748 mmHg 42%
    17:00 +17°C° 0.3 mm 4 m/S 747 mmHg 48%
    18:00 +15°C° 0.3 mm 5 m/S 745 mmHg 54%
    19:00 +14°C° 0.3 mm 5 m/S 744 mmHg 59%
    20:00 +14°C° 1.4 mm 5 m/S 743 mmHg 66%
    21:00 +14°C° 1.4 mm 5 m/S 742 mmHg 72%
    22:00 +14°C° 1.4 mm 5 m/S 741 mmHg 78%
    23:00 +14°C° 2.1 mm 5 m/S 741 mmHg 81%

    24 September, Montag

    Zeit Temperatur Niederschläge Wind Luftdruck Luftfeuchtigkeit
    00:00 +14°C° 2.1 mm 5 m/S 741 mmHg 83%
    01:00 +14°C° 2.1 mm 5 m/S 741 mmHg 85%
    02:00 +14°C° 0.4 mm 5 m/S 740 mmHg 84%
    03:00 +13°C° 0.4 mm 5 m/S 740 mmHg 83%
    04:00 +13°C° 0.4 mm 6 m/S 740 mmHg 81%
    05:00 +12°C° 0.1 mm 5 m/S 740 mmHg 80%
    06:00 +12°C° 0.1 mm 5 m/S 740 mmHg 79%
    07:00 +10°C° 0.1 mm 5 m/S 740 mmHg 78%
    08:00 +11°C° 0 mm 6 m/S 740 mmHg 73%
    09:00 +13°C° 0 mm 6 m/S 739 mmHg 68%
    10:00 +14°C° 0 mm 7 m/S 739 mmHg 63%
    11:00 +14°C° 0.1 mm 6 m/S 739 mmHg 66%
    12:00 +13°C° 0.1 mm 6 m/S 739 mmHg 69%
    13:00 +13°C° 0.1 mm 6 m/S 739 mmHg 72%
    14:00 +12°C° 0.1 mm 7 m/S 740 mmHg 72%
    15:00 +11°C° 0.1 mm 8 m/S 741 mmHg 73%
    16:00 +11°C° 0.1 mm 8 m/S 741 mmHg 73%
    17:00 +10°C° 0 mm 9 m/S 742 mmHg 73%
    18:00 +10°C° 0 mm 9 m/S 743 mmHg 72%
    19:00 +9°C° 0 mm 10 m/S 744 mmHg 71%
    20:00 +8°C° 0.2 mm 10 m/S 744 mmHg 72%
    21:00 +8°C° 0.2 mm 9 m/S 745 mmHg 74%
    22:00 +8°C° 0.2 mm 9 m/S 746 mmHg 75%
    23:00 +8°C° 0.4 mm 9 m/S 747 mmHg 77%
    Mehr zeigen